Weather History for 94767 - October, 2013

Change the Weather History Date:

Monday, October 7, 2013

  Actual Average Record
Temperature  
Mean Temperature 66 °F -  
Max Temperature 72 °F 73 °F - ()
Min Temperature 60 °F 57 °F - ()
Cooling Degree Days 1    
Growing Degree Days 16 (Base 50)    
Moisture  
Dew Point 52 °F    
Average Humidity 63    
Maximum Humidity 88    
Minimum Humidity 29    
Precipitation  
Precipitation 0.04 in 0.11 in - ()
Sea Level Pressure  
Sea Level Pressure 29.84 in    
Wind  
Wind Speed 17 mph ()    
Max Wind Speed 25 mph    
Max Gust Speed 43 mph    
Visibility 7.1 miles    
Events Rain    
T = Trace of Precipitation, MM = Missing Value Source: Averaged Metar Reports

Daily Weather History Graph

Daily Weather History Graph

Search for Another Location

Airport or City:

Trip Planner

Search our weather history database for the weather conditions in past years. The results will help you decide how hot, cold, wet, or windy it might be!

Date:

Astronomy

Oct. 07, 2013 Rise Set
Actual Time 6:24 AM AEDT 7:02 PM AEDT
Civil Twilight 5:59 AM AEDT 7:27 PM AEDT
Nautical Twilight 5:29 AM AEDT 7:57 PM AEDT
Astronomical Twilight 4:59 AM AEDT 8:27 PM AEDT
Moon 7:33 AM AEDT (10/7) 9:23 PM AEDT (10/7)
Length of Visible Light 13h 28m
Length of Day
12h 37m
Waxing Crescent, 5% of the Moon is Illuminated
Oct 7
Waxing Crescent
Oct 12
First Quarter
Oct 19
Full
Oct 27
Last Quarter
Nov 3
New

Hourly Weather History & Observations

Time (AEDT) Temp. Dew Point Humidity Pressure Visibility Wind Dir Wind Speed Gust Speed Precip Events Conditions
12:00 AM 72 °F 47 °F 29% 29.68 in 19 mi North 4.6 mph - -   Partly Cloudy
12:00 AM 71.6 °F 46.4 °F 41% 29.65 in - North 4.6 mph - N/A   Clear
12:30 AM 71.6 °F 48.2 °F 43% 29.68 in - NNW 4.6 mph - N/A   Clear
12:51 AM 66.2 °F 57.2 °F 73% 29.68 in - South 20.7 mph 42.6 mph N/A   Clear
1:00 AM 66 °F 61 °F 80% 29.71 in - South 24.2 mph - -  
1:00 AM 66.2 °F 60.8 °F 83% 29.71 in - South 24.2 mph 42.6 mph N/A   Clear
1:30 AM 66.2 °F 60.8 °F 83% 29.71 in 6.2 mi South 24.2 mph - N/A   Partly Cloudy
2:00 AM 65 °F 61 °F 81% 29.73 in - South 24.2 mph - -  
2:00 AM 64.4 °F 60.8 °F 88% 29.71 in 6.2 mi South 24.2 mph - N/A   Partly Cloudy
2:30 AM 64.4 °F 59.0 °F 83% 29.71 in 6.2 mi South 18.4 mph - N/A   Partly Cloudy
3:00 AM 64 °F 58 °F 75% 29.74 in 9 mi South 17.3 mph - -   Haze
3:00 AM 64.4 °F 57.2 °F 77% 29.74 in 6.2 mi South 17.3 mph - N/A   Partly Cloudy
3:30 AM 64.4 °F 57.2 °F 77% 29.74 in - South 21.9 mph - N/A   Clear
4:00 AM 64 °F 56 °F 67% 29.77 in - SSW 19.6 mph - -  
4:30 AM 62.6 °F 57.2 °F 82% 29.77 in 6.2 mi SSW 20.7 mph - N/A   Partly Cloudy
5:00 AM 62 °F 56 °F 76% 29.78 in - SSW 19.6 mph - -  
5:00 AM 62.6 °F 57.2 °F 82% 29.77 in 6.2 mi SSW 19.6 mph - N/A   Partly Cloudy
5:30 AM 60.8 °F 55.4 °F 82% 29.77 in 6.2 mi SSW 21.9 mph - N/A   Scattered Clouds
6:00 AM 61 °F 54 °F 71% 29.81 in 9 mi SSW 20.7 mph - -   Partly Cloudy
6:00 AM 60.8 °F 53.6 °F 77% 29.80 in 6.2 mi SSW 20.7 mph - N/A   Scattered Clouds
6:30 AM 60.8 °F 53.6 °F 77% 29.80 in 6.2 mi SSW 24.2 mph - N/A   Scattered Clouds
7:00 AM 61 °F 53 °F 67% 29.83 in - SSW 19.6 mph - -  
7:00 AM 60.8 °F 53.6 °F 77% 29.83 in 6.2 mi SSW 19.6 mph - N/A   Partly Cloudy
7:30 AM 60.8 °F 53.6 °F 77% 29.83 in 6.2 mi SSW 21.9 mph - N/A   Partly Cloudy
8:00 AM 61 °F 53 °F 66% 29.86 in - SSW 20.7 mph - -  
8:00 AM 60.8 °F 51.8 °F 72% 29.86 in 6.2 mi SSW 20.7 mph - N/A   Partly Cloudy
8:30 AM 62.6 °F 53.6 °F 72% 29.86 in 6.2 mi SSW 20.7 mph - N/A   Partly Cloudy
9:00 AM 63 °F 52 °F 59% 29.87 in 9 mi South 23.0 mph - -   Scattered Clouds
9:00 AM 62.6 °F 51.8 °F 68% 29.86 in 6.2 mi South 23.0 mph - N/A   Partly Cloudy
9:30 AM 62.6 °F 53.6 °F 72% 29.86 in 6.2 mi South 21.9 mph - N/A   Scattered Clouds
10:00 AM 63 °F 52 °F 59% 29.88 in - South 20.7 mph - -  
10:00 AM 62.6 °F 51.8 °F 68% 29.86 in 6.2 mi South 20.7 mph - N/A   Scattered Clouds
10:30 AM 64.4 °F 51.8 °F 64% 29.86 in 6.2 mi South 20.7 mph - N/A   Scattered Clouds
11:00 AM 64 °F 52 °F 57% 29.90 in - South 19.6 mph - -  
11:00 AM 64.4 °F 51.8 °F 64% 29.89 in 6.2 mi South 19.6 mph - N/A   Scattered Clouds
11:30 AM 64.4 °F 51.8 °F 64% 29.89 in 6.2 mi South 23.0 mph - N/A   Scattered Clouds
12:00 PM 62 °F 52 °F 60% 29.90 in 9 mi South 24.2 mph - -   Mostly Cloudy
12:00 PM 62.6 °F 51.8 °F 68% 29.89 in 6.2 mi South 24.2 mph - N/A   Scattered Clouds
12:30 PM 62.6 °F 51.8 °F 68% 29.89 in 6.2 mi South 21.9 mph - N/A   Partly Cloudy
1:00 PM 64 °F 53 °F 58% 29.88 in - South 20.7 mph - -  
1:00 PM 64.4 °F 53.6 °F 68% 29.86 in 6.2 mi South 20.7 mph - N/A   Scattered Clouds
1:30 PM 64.4 °F 48.2 °F 56% 29.86 in 6.2 mi South 24.2 mph - N/A   Scattered Clouds
2:00 PM 65 °F 49 °F 46% 29.87 in - South 23.0 mph - -  
2:00 PM 64.4 °F 50.0 °F 59% 29.86 in 6.2 mi South 23.0 mph - N/A   Partly Cloudy
2:30 PM 64.4 °F 48.2 °F 56% 29.86 in 6.2 mi South 25.3 mph - N/A   Scattered Clouds
3:00 PM 64 °F 50 °F 50% 29.86 in 11 mi South 24.2 mph - -   Partly Cloudy
3:00 PM 64.4 °F 50.0 °F 59% 29.83 in 6.2 mi South 24.2 mph - N/A   Partly Cloudy
3:30 PM 64.4 °F 48.2 °F 56% 29.86 in 6.2 mi South 23.0 mph - N/A   Partly Cloudy
4:00 PM 64 °F 47 °F 44% 29.86 in - South 20.7 mph - -  
4:00 PM 64.4 °F 48.2 °F 56% 29.86 in 6.2 mi South 20.7 mph - N/A   Partly Cloudy
4:30 PM 64.4 °F 48.2 °F 56% 29.86 in 6.2 mi South 20.7 mph - N/A   Partly Cloudy
5:00 PM 64 °F 47 °F 44% 29.86 in - South 21.9 mph - -  
5:00 PM 64.4 °F 48.2 °F 56% 29.86 in 6.2 mi South 21.9 mph - N/A   Partly Cloudy
5:30 PM 64.4 °F 46.4 °F 52% 29.86 in 6.2 mi SSE 18.4 mph - N/A   Partly Cloudy
6:00 PM 65 °F 44 °F 36% 29.87 in 16 mi SSE 18.4 mph - -   Partly Cloudy
6:00 PM 64.4 °F 44.6 °F 49% 29.86 in 6.2 mi SSE 18.4 mph - N/A   Partly Cloudy
6:30 PM 64.4 °F 48.2 °F 56% 29.86 in 6.2 mi SSE 18.4 mph - N/A   Partly Cloudy
7:00 PM 63 °F 48 °F 48% 29.89 in - South 18.4 mph - -  
7:00 PM 62.6 °F 48.2 °F 59% 29.89 in 6.2 mi South 18.4 mph - N/A   Partly Cloudy
7:30 PM 62.6 °F 48.2 °F 59% 29.89 in 6.2 mi SSE 16.1 mph - N/A   Scattered Clouds
8:00 PM 64 °F 48 °F 45% 29.92 in - SSE 15.0 mph - -  
8:00 PM 64.4 °F 48.2 °F 56% 29.92 in 6.2 mi SSE 15.0 mph - N/A   Mostly Cloudy
8:30 PM 62.6 °F 48.2 °F 59% 29.92 in 6.2 mi SSE 11.5 mph - N/A   Mostly Cloudy
9:00 PM 63 °F 48 °F 48% 29.94 in 16 mi SE 15.0 mph - -   Mostly Cloudy
9:00 PM 62.6 °F 48.2 °F 59% 29.92 in 6.2 mi SE 15.0 mph - N/A   Mostly Cloudy
9:30 PM 64.4 °F 48.2 °F 56% 29.92 in 6.2 mi SE 12.7 mph - N/A   Mostly Cloudy
10:00 PM 63 °F 48 °F 48% 29.94 in - SE 11.5 mph - -  
10:00 PM 62.6 °F 48.2 °F 59% 29.92 in 6.2 mi SE 11.5 mph - N/A   Mostly Cloudy
10:30 PM 62.6 °F 48.2 °F 59% 29.92 in 6.2 mi East 8.1 mph - N/A   Mostly Cloudy
11:00 PM 63 °F 49 °F 49% 29.94 in - ENE 5.8 mph - -  
11:00 PM 62.6 °F 48.2 °F 59% 29.92 in 6.2 mi ENE 5.8 mph - N/A   Mostly Cloudy
11:30 PM 60.8 °F 53.6 °F 77% 29.92 in 5.0 mi NE 6.9 mph - N/A Rain Light Rain Showers